Cozumel, Mexico

11:51 PM on March 30, 2017 (GMT +0000)
Cozumel International

Weather History for MMCZ - March, 2014

Change the Weather History Date:

Friday, March 21, 2014

  Actual Average Record
Temperature  
Mean Temperature 73 °F -  
Max Temperature 80 °F 84 °F 89 °F (2005)
Min Temperature 66 °F 72 °F 60 °F (2011)
Cooling Degree Days 8    
Growing Degree Days 23 (Base 50)    
Moisture  
Dew Point 70 °F    
Average Humidity 89    
Maximum Humidity 100    
Minimum Humidity 74    
Precipitation  
Precipitation 0.00 in - - ()
Sea Level Pressure  
Sea Level Pressure 30.01 in    
Wind  
Wind Speed 4 mph ()    
Max Wind Speed 12 mph    
Max Gust Speed -    
Visibility 7.6 miles    
Events      
Averages and records for this station are not official NWS values.
T = Trace of Precipitation, MM = Missing Value Source: Averaged Metar Reports

Daily Weather History Graph

Daily Weather History Graph

Search for Another Location

Airport or City:

Trip Planner

Search our weather history database for the weather conditions in past years. The results will help you decide how hot, cold, wet, or windy it might be!

Date:

Astronomy

Mar. 21, 2014 Rise Set
Actual Time 5:50 AM CST 5:59 PM CST
Civil Twilight 5:28 AM CST 6:21 PM CST
Nautical Twilight 5:03 AM CST 6:46 PM CST
Astronomical Twilight 4:37 AM CST 7:12 PM CST
Moon 10:42 PM CST (3/21) 9:16 AM CST (3/21)
Length of Visible Light 12h 52m
Length of Day
12h 08m
Waning Gibbous, 75% of the Moon is Illuminated
Mar 21
Waning Gibbous
Mar 23
Last Quarter
Mar 30
New
Apr 7
First Quarter
Apr 15
Full

Hourly Weather History & Observations

Time (CST) Temp. Heat Index Dew Point Humidity Pressure Visibility Wind Dir Wind Speed Gust Speed Precip Events Conditions
12:56 AM 68.0 °F - 68.0 °F 100% 30.01 in 7.0 mi Calm Calm - N/A   Clear
2:15 AM 68.0 °F - 68.0 °F 100% 29.99 in 7.0 mi Calm Calm - N/A   Clear
3:17 AM 68.0 °F - 68.0 °F 100% 30.02 in 7.0 mi Calm Calm - N/A   Clear
3:55 AM 68.0 °F - 68.0 °F 100% 29.97 in 7.0 mi Calm Calm - N/A   Clear
5:00 AM 66.2 °F - 66.2 °F 100% 29.98 in 7.0 mi Calm Calm - N/A   Clear
5:48 AM 66.2 °F - 66.2 °F 100% 29.98 in 7.0 mi East 3.5 mph - N/A   Clear
6:41 AM 69.8 °F - 69.8 °F 100% 30.00 in 7.0 mi East 3.5 mph - N/A   Clear
7:51 AM 75.2 °F - 69.8 °F 83% 30.03 in 8.0 mi East 5.8 mph - N/A   Clear
8:44 AM 77.0 °F - 71.6 °F 83% 30.06 in 8.0 mi ENE 10.4 mph - N/A   Partly Cloudy
9:48 AM 80.6 °F 84.6 °F 71.6 °F 74% 30.05 in 8.0 mi NE 11.5 mph - N/A   Scattered Clouds
10:43 AM 80.6 °F 84.6 °F 71.6 °F 74% 30.05 in 8.0 mi ENE 11.5 mph - N/A   Scattered Clouds
11:47 AM 80.6 °F 84.6 °F 71.6 °F 74% 30.01 in 8.0 mi East 11.5 mph - N/A   Scattered Clouds
12:42 PM 80.6 °F 85.4 °F 73.4 °F 79% 30.01 in 8.0 mi ENE 11.5 mph - N/A   Scattered Clouds
1:41 PM 80.6 °F 85.4 °F 73.4 °F 79% 29.99 in 8.0 mi ENE 11.5 mph - N/A   Scattered Clouds
2:40 PM 80.6 °F 84.6 °F 71.6 °F 74% 30.01 in 8.0 mi East 8.1 mph - N/A   Mostly Cloudy
3:41 PM 80.6 °F 84.6 °F 71.6 °F 74% 29.97 in 8.0 mi ESE 11.5 mph - N/A   Mostly Cloudy
4:40 PM 78.8 °F - 71.6 °F 78% 29.98 in 8.0 mi ESE 9.2 mph - N/A   Mostly Cloudy
5:40 PM 77.0 °F - 71.6 °F 83% 29.97 in 8.0 mi ESE 8.1 mph - N/A   Scattered Clouds
6:40 PM 73.4 °F - 71.6 °F 94% 30.00 in 8.0 mi East 4.6 mph - N/A   Scattered Clouds
7:42 PM 71.6 °F - 69.8 °F 94% 30.01 in 8.0 mi ESE 4.6 mph - N/A   Scattered Clouds
8:40 PM 71.6 °F - 69.8 °F 94% 30.05 in 8.0 mi ESE 3.5 mph - N/A   Partly Cloudy
9:41 PM 69.8 °F - 69.8 °F 100% 30.04 in 7.0 mi ESE 3.5 mph - N/A   Partly Cloudy
10:48 PM 69.8 °F - 69.8 °F 100% 30.02 in 7.0 mi ESE 3.5 mph - N/A   Partly Cloudy
11:46 PM 68.0 °F - 68.0 °F 100% 30.01 in 7.0 mi ESE 3.5 mph - N/A   Partly Cloudy